Location: Ferma
(41.9500°N, 44.5167°E)
Time: 18:43:10
(UTC+00:00)

Cosmos 2123 Rocket - Pass Details

Date: 24 October 2021
Orbit: 961 x 992 km, 82.9° (Epoch: 01 December)

Event Time Altitude Azimuth Distance (km) Brightness Sun altitude
Rises 14:24:44 0° 359° (N) 3,715 6.9 -4.1°
Reaches altitude 10° 14:27:28 10° 7° (N) 2,760 6.2 -4.6°
Maximum altitude 14:33:23 40° 75° (ENE) 1,421 4.4 -5.6°
Drops below altitude 10° 14:39:13 10° 144° (SE) 2,728 6.1 -6.7°
Sets 14:41:53 0° 152° (SSE) 3,667 6.8 -7.2°
